User: anonymous   Login
Location: Joplin
(37.0842°N, 94.5131°W)
Time: 20:50:12
(UTC-05:00)
Language:

Envisat - Orbit

View from above orbital plane
View from above orbital plane
View from above satellite
View from above satellite

Ground track
Ground track

The orbit data is extracted from the following two-line orbital elements,

1 27386U 02009A   19113.66270213 -.00000020  00000-0  67302-5 0  9995
2 27386  98.1540 137.5406 0001413  89.8916  18.3105 14.37946499898145
Epoch (UTC): 23 April 2019 15:54:17
Eccentricity: 0.0001413
inclination: 98.1540°
perigee height: 764 km
apogee height: 766 km
right ascension of ascending node: 137.5406°
argument of perigee: 89.8916°
revolutions per day: 14.37946499
mean anomaly at epoch: 18.3105°
orbit number at epoch: 89814

The dashed part of the orbit path shows where the satellite is in the earth's shadow,  

DLR